Regional Weather Roundup
Issued by NWS Grand Forks, ND

Home | Current Version | Previous Version | Text Only | Print | Product List | Glossary On
Versions: 1 2 3 4 5 6 7 8 9 10 11 12 13 14 15 16 17 18 19 20 21 22 23 24 25 26 27 28 29 30 31 32 33 34 35 36 37 38 39 40 41 42 43 44 45 46 47 48 49 50
000
ASUS43 KFGF 211910
RWRFGF
PRAIRIE TO PINES  WEATHER ROUNDUP
NATIONAL WEATHER SERVICE EASTERN NORTH DAKOTA/GRAND FORKS ND
200 PM CDT THU AUG 21 2014

 **SATELLITE DATA USED TO AUGMENT SKY COVER AT AUTOMATED STATIONS**
 *****  WEATHER ACROSS EASTERN NORTH DAKOTA  *****

CITY           SKY/WX    TMP DP  RH WIND       PRES   REMARKS
GRAND FORKS    CLOUDY    75  68  78 CALM      29.78R
GRAND FRKS AFB CLOUDY    74  71  91 NE2       29.80R
GRAND FRKS NWS   N/A     59 N/A N/A W1          N/A
DEVILS LAKE    PTSUNNY   72  64  78 N9        29.80R
FARGO          CLOUDY    78  68  71 E3        29.76R
WAHPETON ARPT  CLOUDY    77  63  61 CALM      29.77S
$$

 ***** WEATHER ACROSS CENTRAL AND WESTERN NORTH DAKOTA  *****

CITY           SKY/WX    TMP DP  RH WIND       PRES   REMARKS
BISMARCK       MOSUNNY   79  65  62 NW13      29.87R
MINOT          CLOUDY    71  62  73 NW8       29.87S
JAMESTOWN      PTSUNNY   77  69  76 NW10      29.80R
MINOT AFB      CLOUDY    72  65  77 NW13      29.87S
GARRISON         N/A     78  63  59 N12       29.88R
WILLISTON      CLOUDY    68  59  73 N9        29.96S
DICKINSON      SUNNY     77  61  57 N9        29.93R
HETTINGER      SUNNY     79  59  50 N8        29.94S
$$

 *****  OTHER AIRPORT OBSERVATIONS IN OUR AREA  *****

CITY           SKY/WX    TMP DP  RH WIND       PRES   REMARKS
WALHALLA         N/A     73  72  94 E5        29.81S
GRAFTON AIRPOR FAIR      75  68  78 CALM      29.79S
VALLEY CITY AR MOCLDY    75  72  88 CALM      29.79S
CANDO          CLOUDY    72  66  83 N5        29.83R
CAVALIER APRT  CLOUDY    72  66  83 E6        29.81R
GWINNER        CLOUDY    79  70  73 N6        29.79R
SHEYENNE NWR     N/A     77  69  75 CALM      29.95S
ROLLA          CLOUDY    72  72 100 N10       29.86R
 ***** THE ABOVE OBSERVATIONS ARE NON NWS ARE NOT QUALITY
       CONTROLLED AND MAY MIS-REPORT RAIN FOR SNOW...
$$

  *****  WEATHER ACROSS NORTHERN MINNESOTA  *****

CITY           SKY/WX    TMP DP  RH WIND       PRES   REMARKS
FLAG ISLAND    CLOUDY    66  61  82 E5        29.86R
WARROAD        LGT RAIN  66  63  88 E9        29.86R
ROSEAU         PTSUNNY   68  63  83 E8        29.85R
HALLOCK        CLOUDY    73  66  78 SE6       29.80S
THF RVR FALLS  CLOUDY    77  66  69 SW5       29.81R
BAUDETTE       CLOUDY    66  62  87 E13       29.85S
WASKISH        PTSUNNY   73  66  78 CALM      29.84S
CROOKSTON      PTSUNNY   77  66  69 SW5       29.79S
$$
  *****  WEATHER ACROSS CENTRAL AND WEST MINNESOTA  *****

CITY           SKY/WX    TMP DP  RH WIND       PRES   REMARKS
FOSSTON        CLOUDY    77  66  69 CALM      29.81S
BEMIDJI        CLOUDY    70  64  82 E8        29.84S
PARK RAPIDS    CLOUDY    71  65  81 E12       29.82R
ELBOW LAKE     CLOUDY    76  71  83 E5        29.78R
WADENA         CLOUDY    70  68  94 E7        29.81R FOG
DETROIT LAKES  CLOUDY    73  68  83 SE8       29.81S
MOORHEAD       PTSUNNY   77  72  83 E6        29.78R
FERGUS FALLS   CLOUDY    73  66  78 E5        29.78R
MORRIS MN      SUNNY     81  70  69 NW6       29.76S
STAPLES        CLOUDY    70  66  88 E7        29.82R FOG
$$
  *****  WEATHER ELSEWHERE ACROSS MINNESOTA  *****

CITY           SKY/WX    TMP DP  RH WIND       PRES   REMARKS
DULUTH         CLOUDY    66  60  81 E16       29.89S
INTRNTL FALLS  LGT RAIN  67  61  81 E8        29.88S
ELY            CLOUDY    64  57  77 SE9       29.92S
CLOQUET        CLOUDY    64  61  88 E10       29.88S
WHEATON        MOSUNNY   77  68  73 N7        29.78S
BRAINERD       CLOUDY    67  65  93 E8        29.83R FOG
HIBBING        CLOUDY    72  62  71 SE12      29.88S
ALEXANDRIA     CLOUDY    73  70  90 NE10      29.81R
SAINT CLOUD    CLOUDY    76  70  82 E6        29.78S
MINNEAPOLIS    CLOUDY    82  72  71 SE10      29.76S
$$

  *****  WEATHER ACROSS SOUTH DAKOTA  *****

CITY           SKY/WX    TMP DP  RH WIND       PRES   REMARKS
SIOUX FALLS    PTSUNNY   87  76  69 W7        29.78S HX  97
BROOKINGS      NOT AVBL
WATERTOWN      MOSUNNY   80  69  69 W15       29.81R
HURON          MOSUNNY   85  66  53 NW14      29.80R
SISSETON         N/A     81  71  71 N7        29.76R
ABERDEEN       PTSUNNY   83  69  62 NW10      29.79S
MITCHELL       MOSUNNY   85  70  60 NW10      29.81R
PIERRE         SUNNY     82  63  52 N9        29.85S
MOBRIDGE       SUNNY     81  65  58 N13       29.84S
RAPID CITY     MOSUNNY   80  55  42 E6        29.98R
$$

  *****  SOME WEATHER IN NEARBY STATES *****

CITY           SKY/WX    TMP DP  RH WIND       PRES   REMARKS
GLASGOW MT     PTSUNNY   73  57  57 SE8       29.97F
GREAT FALLS MT CLOUDY    59  50  72 W5        30.09S
CHEYENNE WY    MOSUNNY   80  40  23 W18G26    30.15S
SCOTTSBLUFF NE SUNNY     85  54  34 NW5       30.02S
OMAHA NE       PTSUNNY   87  69  54 SW12      29.83R HX  91
DES MOINES IA  PTSUNNY   84  73  69 S10       29.86F HX  90
DAVENPORT IA   CLOUDY    79  73  82 W8        29.95R
CHICAGO IL     LGT RAIN  77  69  76 SE3       29.96S
EAU CLAIRE WI  PTSUNNY   77  69  76 SE13      29.83S
LA CROSSE WI   CLOUDY    78  70  76 SE10      29.84S
$$

  *****  SOME NATIONAL WEATHER *****

CITY           SKY/WX    TMP DP  RH WIND       PRES   REMARKS
LA GUARDIA NY  PTSUNNY   80  59  48 S13       30.03F
RALEIGH NC     PTSUNNY   90  71  53 W6        30.06F HX  96
ATLANTA GA     MOSUNNY   92  71  50 N16       30.14F HX  98
NEW ORLEANS LA PTSUNNY   90  76  63 NE7       30.10F HX 101
OKLAHOMA CITY  MOSUNNY   95  68  41 S16G25    29.95F HX  99
ALBUQUERQUE NM MOSUNNY   85  40  20 NE5       30.15F
SALT LAKE CITY CLOUDY    75  50  41 VRB5      30.10S
LOS ANGELES CA MOSUNNY   73  61  65 W9        29.97S
BOISE ID       MOSUNNY   78  48  34 VRB5      29.98F
SEATTLE WA     PTSUNNY   60  49  66 CALM      30.06S
$$

*** WEATHER ACROSS MANITOBA...SASKATCHEWAN AND ONTARIO ***
                ***ONTARIO***

CITY           SKY/WX    TMP DP  RH WIND       PRES   REMARKS
GERALDTON      CLOUDY    70  61  73 SE6       30.00S
THUNDER BAY    CLOUDY    68  61  77 E9        29.97S
SIOUX LOOKOUT  CLOUDY    70  61  73 SE6       29.93R
TORONTO        PTSUNNY   77  64  65 NE3       29.94F
BIG TROUT LK   CLOUDY    73  61  64 S7        29.93F
PICKLE LAKE    CLOUDY    72  57  60 SE12      29.96R
DRYDEN         PTSUNNY   72  59  64 S12G17    29.91S
KENORA         CLOUDY    68  61  77 SE7       29.90R
$$
                *** MANITOBA***

CITY           SKY/WX    TMP DP  RH WIND       PRES   REMARKS
BRANDON        CLOUDY    70  66  88 N3        29.86R
DAUPHIN        LGT RAIN  63  61  94 N10       29.89R FOG
ISLAND LAKE    LGT RAIN  79  64  61 SW8       29.83R
PILOT MOUND      N/A     68  66  94 NE5         N/A
THE PAS        CLOUDY    63  55  77 NW10G18   29.94R
THOMPSON       LGT RAIN  54  54 100 N6        29.89R FOG
WINNIPEG       PTSUNNY   73  66  78 NE8       29.82S
LYNN LAKE      CLOUDY    57  52  82 MISG      30.00R
CHURCHILL      TSTM      46  46 100 N20       29.89R FOG
GILLAM         TSTM      66  66 100 N6        29.80
$$
                ***SASKATCHEWAN***

CITY           SKY/WX    TMP DP  RH WIND       PRES   REMARKS
ESTEVAN        CLOUDY    64  61  88 NW12      29.95R
KINDERSLEY     NOT AVBL
LLOYDMINSTER   PTSUNNY   59  43  55 N14       30.15R
PRINCE ALBERT  PTSUNNY   66  55  68 N13       30.06R
REGINA         PTSUNNY   66  57  72 N16       29.99R
YORKTON        MOSUNNY   70  55  60 N14G22    29.94S
N. BATTLEFORD  CLOUDY    61  50  67 N10       30.13R
LA RONGE       CLOUDY    55  50  82 NW12      30.09R
SASKATOON      PTSUNNY   66  55  68 NE12G18   30.07R
SWIFT CURRENT  PTSUNNY   61  55  82 NE16      30.04S
$$
NOTE: THESE ARE AUTOMATED STATIONS WITH LIMITED QUALITY CONTROL
      "FAIR" INDICATES FEW OR NO CLOUDS BELOW 12,000 FEET WITH NO
      SIGNIFICANT WEATHER AND/OR OBSTRUCTIONS TO VISIBILITY.
      SKY/WX - SKY CONDITION AND SIGNIFICANT WEATHER.
      TMP - AIR TEMPERATURE.    DP   - DEWPOINT TEMPERATURE.
      RH  - RELATIVE HUMIDITY.  PRES - PRESSURE.
      HX  - HEAT INDEX.         WCI  - WIND CHILL INDEX.
$


USA.gov is the U.S. government's official web portal to all federal, state and local government web resources and services.